Preview of NWS' New Version of Forecast
This preview is not operational and should not be used for support decisions.

Regional Weather Roundup (RWR)

Issued by National Weather Service (NWS)

                            
000
ASUS45 KCYS 212110
RWRWY 

WYOMING REGIONAL WEATHER ROUNDUP
NATIONAL WEATHER SERVICE CHEYENNE WY
300 PM MDT SAT SEP 21 2019

NOTE:  "FAIR" INDICATES FEW OR NO CLOUDS BELOW 12,000 FEET
WITH NO SIGNIFICANT WEATHER AND/OR OBSTRUCTIONS TO VISIBILITY.

WYZ001-212200-
YELLOWSTONE NATIONAL PARK
  
CITY           SKY/WX    TMP DP  RH WIND       PRES   REMARKS
LK YELLOWSTONE   N/A     40  37  89 VRB3      30.19F                  
W YELLOWSTONE  NOT AVBL                                               

$$
WYZ002>013-054>058-071-098>099-212200-
NORTHERN WYOMING
  
CITY           SKY/WX    TMP DP  RH WIND       PRES   REMARKS
JACKSON        NOT AVBL                                               
CODY           CLOUDY    52  42  69 CALM      30.07F                  
GREYBULL       NOT AVBL                                               
WORLAND        PTSUNNY   58  43  57 NE7       30.05F                  
SHERIDAN       FAIR      59  41  51 NW18      30.03F                  
BUFFALO        FAIR      57  38  48 N20G32    30.05R                  
GILLETTE       CLOUDY    52  42  69 NW21      30.04R                  
HULETT         CLOUDY    52  43  71 NW10G23   30.02R                  
NEWCASTLE      CLOUDY    55  37  50 NW23G33   30.02                   

$$
WYZ014>020-022>026-101>103-212200-
CENTRAL WYOMING
  
CITY           SKY/WX    TMP DP  RH WIND       PRES   REMARKS
BIG PINEY      CLOUDY    51  29  42 NW8       30.16S                  
PINEDALE       CLOUDY    48  32  53 NW16      30.16S                  
DUBOIS         MOCLDY    46  30  53 NW12G22   30.12S                  
LANDER         CLOUDY    58  27  30 W6        30.05F                  
RIVERTON       CLOUDY    60  34  37 E6        30.06S                  
CASPER         FAIR      64  27  24 NW18G25   30.04S                  
DOUGLAS        CLOUDY    62  32  32 NW16      30.04R                  

$$
WYZ021-027>030-104>119-212200-
SOUTHERN WYOMING
  
CITY           SKY/WX    TMP DP  RH WIND       PRES   REMARKS
EVANSTON       CLOUDY    47  32  56 NW6       30.19F                  
KEMMERER       FAIR      50  30  46 W15       30.18S                  
ROCK SPRINGS   CLOUDY    54  28  36 W10G20    30.15S                  
DIXON          FAIR      60  21  22 W9G16     30.16F                  
RAWLINS        PTSUNNY   59  25  27 SW20G28   30.13S                  
SARATOGA       FAIR      59  21  23 W17G28    30.14F                  
LARAMIE        FAIR      62  11  13 SW12G24   30.07F                  
CHEYENNE       FAIR      67  16  14 NW6G18    30.03F                  
TORRINGTON     FAIR      72  31  22 NW10G24   29.97F                  
PINE BLUFFS    MOCLDY    73  21  14 CALM      30.00F                  

$$